Meteo pe oră la Dagestanskaya

Astăzi, 12 Aprilie, Luni

Timp Temperatura Precipitaţii Vânt Presiune Umiditate
00:00 +9°C° 0 mm 1 m/s 736 mmHg 96%
01:00 +8°C° 0 mm 1 m/s 736 mmHg 96%
02:00 +8°C° 0 mm 1 m/s 736 mmHg 96%
03:00 +8°C° 0 mm 1 m/s 736 mmHg 96%
04:00 +8°C° 0.5 mm 1 m/s 737 mmHg 97%
05:00 +8°C° 0.5 mm 1 m/s 737 mmHg 97%
06:00 +7°C° 0.5 mm 0 m/s 737 mmHg 97%
07:00 +7°C° 0.4 mm 0 m/s 737 mmHg 96%
08:00 +8°C° 0.4 mm 0 m/s 737 mmHg 95%
09:00 +8°C° 0.4 mm 0 m/s 738 mmHg 94%
10:00 +8°C° 0.8 mm 0 m/s 738 mmHg 94%
11:00 +9°C° 0.8 mm 0 m/s 738 mmHg 94%
12:00 +9°C° 0.8 mm 0 m/s 738 mmHg 93%
13:00 +9°C° 0.2 mm 0 m/s 738 mmHg 91%
14:00 +10°C° 0.2 mm 0 m/s 738 mmHg 90%
15:00 +10°C° 0.2 mm 0 m/s 738 mmHg 88%
16:00 +10°C° 0.1 mm 0 m/s 738 mmHg 91%
17:00 +9°C° 0.1 mm 0 m/s 738 mmHg 93%
18:00 +9°C° 0.1 mm 0 m/s 738 mmHg 94%
19:00 +9°C° 0.1 mm 0 m/s 738 mmHg 94%
20:00 +9°C° 0.1 mm 0 m/s 739 mmHg 95%
21:00 +9°C° 0.1 mm 0 m/s 739 mmHg 95%
22:00 +8°C° 0.3 mm 0 m/s 739 mmHg 96%
23:00 +8°C° 0.3 mm 0 m/s 739 mmHg 97%

Mâine, 13 Aprilie, Marţi

Timp Temperatura Precipitaţii Vânt Presiune Umiditate
00:00 +8°C° 0.3 mm 0 m/s 738 mmHg 97%
01:00 +8°C° 0.9 mm 0 m/s 738 mmHg 98%
02:00 +8°C° 0.9 mm 0 m/s 739 mmHg 98%
03:00 +8°C° 0.9 mm 0 m/s 739 mmHg 98%
04:00 +8°C° 0.5 mm 0 m/s 739 mmHg 98%
05:00 +7°C° 0.5 mm 0 m/s 739 mmHg 98%
06:00 +7°C° 0.5 mm 0 m/s 739 mmHg 98%
07:00 +8°C° 0.1 mm 0 m/s 739 mmHg 97%
08:00 +8°C° 0.1 mm 0 m/s 739 mmHg 97%
09:00 +8°C° 0.1 mm 0 m/s 739 mmHg 96%
10:00 +10°C° 0 mm 1 m/s 739 mmHg 93%
11:00 +11°C° 0 mm 1 m/s 738 mmHg 89%
12:00 +11°C° 0 mm 1 m/s 738 mmHg 86%
13:00 +12°C° 0 mm 1 m/s 738 mmHg 85%
14:00 +12°C° 0 mm 1 m/s 738 mmHg 85%
15:00 +12°C° 0 mm 1 m/s 738 mmHg 85%
16:00 +12°C° 0 mm 1 m/s 738 mmHg 85%
17:00 +12°C° 0 mm 1 m/s 737 mmHg 86%
18:00 +12°C° 0 mm 1 m/s 737 mmHg 86%
19:00 +11°C° 0 mm 1 m/s 737 mmHg 88%
20:00 +10°C° 0 mm 1 m/s 737 mmHg 90%
21:00 +10°C° 0 mm 1 m/s 737 mmHg 93%
22:00 +10°C° 0 mm 1 m/s 737 mmHg 93%
23:00 +10°C° 0 mm 1 m/s 736 mmHg 94%

Poimâine, 14 Aprilie, Miercuri

Timp Temperatura Precipitaţii Vânt Presiune Umiditate
00:00 +9°C° 0 mm 0 m/s 736 mmHg 94%
01:00 +8°C° 0.1 mm 0 m/s 736 mmHg 95%
02:00 +8°C° 0.1 mm 0 m/s 736 mmHg 95%
03:00 +8°C° 0.1 mm 0 m/s 736 mmHg 96%
04:00 +8°C° 0.1 mm 0 m/s 736 mmHg 96%
05:00 +9°C° 0.1 mm 1 m/s 736 mmHg 95%
06:00 +9°C° 0.1 mm 1 m/s 736 mmHg 95%
07:00 +10°C° 0 mm 1 m/s 736 mmHg 92%
08:00 +11°C° 0 mm 1 m/s 736 mmHg 89%
09:00 +12°C° 0 mm 1 m/s 736 mmHg 85%
10:00 +12°C° 0 mm 1 m/s 736 mmHg 82%
11:00 +13°C° 0 mm 2 m/s 736 mmHg 79%
12:00 +13°C° 0 mm 2 m/s 736 mmHg 75%
13:00 +14°C° 0 mm 2 m/s 735 mmHg 73%
14:00 +14°C° 0 mm 2 m/s 735 mmHg 71%
15:00 +15°C° 0 mm 2 m/s 735 mmHg 69%
16:00 +14°C° 0 mm 2 m/s 735 mmHg 73%
17:00 +14°C° 0 mm 1 m/s 735 mmHg 78%
18:00 +13°C° 0 mm 1 m/s 735 mmHg 83%
19:00 +12°C° 0 mm 1 m/s 735 mmHg 86%
20:00 +11°C° 0 mm 1 m/s 735 mmHg 90%
21:00 +10°C° 0 mm 1 m/s 735 mmHg 94%
22:00 +9°C° 0 mm 1 m/s 735 mmHg 93%
23:00 +9°C° 0 mm 1 m/s 735 mmHg 93%

15 Aprilie, Joi

Timp Temperatura Precipitaţii Vânt Presiune Umiditate
00:00 +8°C° 0 mm 1 m/s 735 mmHg 92%
01:00 +8°C° 0 mm 1 m/s 735 mmHg 90%
02:00 +8°C° 0 mm 1 m/s 734 mmHg 88%
03:00 +8°C° 0 mm 1 m/s 734 mmHg 85%
04:00 +8°C° 0 mm 1 m/s 734 mmHg 84%
05:00 +8°C° 0 mm 1 m/s 734 mmHg 82%
06:00 +8°C° 0 mm 1 m/s 734 mmHg 81%
07:00 +10°C° 0 mm 1 m/s 734 mmHg 72%
08:00 +13°C° 0 mm 1 m/s 734 mmHg 63%
09:00 +16°C° 0 mm 1 m/s 733 mmHg 54%
10:00 +18°C° 0 mm 1 m/s 733 mmHg 50%
11:00 +19°C° 0 mm 1 m/s 733 mmHg 46%
12:00 +20°C° 0 mm 2 m/s 733 mmHg 42%
13:00 +18°C° 0.4 mm 2 m/s 733 mmHg 55%
14:00 +16°C° 0.4 mm 2 m/s 733 mmHg 68%
15:00 +14°C° 0.4 mm 1 m/s 734 mmHg 81%
16:00 +14°C° 0.1 mm 1 m/s 734 mmHg 81%
17:00 +14°C° 0.1 mm 1 m/s 734 mmHg 82%
18:00 +15°C° 0.1 mm 1 m/s 733 mmHg 82%
19:00 +13°C° 0 mm 1 m/s 734 mmHg 85%
20:00 +12°C° 0 mm 1 m/s 734 mmHg 88%
21:00 +11°C° 0 mm 1 m/s 734 mmHg 92%
22:00 +10°C° 0 mm 1 m/s 734 mmHg 91%
23:00 +10°C° 0 mm 1 m/s 734 mmHg 90%

16 Aprilie, Vineri

Timp Temperatura Precipitaţii Vânt Presiune Umiditate
00:00 +9°C° 0 mm 2 m/s 734 mmHg 90%
01:00 +9°C° 0 mm 1 m/s 734 mmHg 89%
02:00 +9°C° 0 mm 1 m/s 734 mmHg 89%
03:00 +9°C° 0 mm 1 m/s 734 mmHg 89%
04:00 +8°C° 0 mm 1 m/s 734 mmHg 89%
05:00 +8°C° 0 mm 1 m/s 734 mmHg 90%
06:00 +8°C° 0 mm 1 m/s 734 mmHg 90%
07:00 +10°C° 0 mm 1 m/s 734 mmHg 84%
08:00 +12°C° 0 mm 1 m/s 734 mmHg 77%
09:00 +13°C° 0 mm 0 m/s 734 mmHg 71%
10:00 +15°C° 0.3 mm 1 m/s 734 mmHg 72%
11:00 +15°C° 0.3 mm 1 m/s 734 mmHg 72%
12:00 +16°C° 0.3 mm 2 m/s 734 mmHg 73%
13:00 +14°C° 1.3 mm 2 m/s 734 mmHg 80%
14:00 +13°C° 1.3 mm 2 m/s 734 mmHg 87%
15:00 +12°C° 1.3 mm 2 m/s 734 mmHg 94%
16:00 +10°C° 1.4 mm 2 m/s 734 mmHg 95%
17:00 +11°C° 1.4 mm 1 m/s 735 mmHg 96%
18:00 +10°C° 1.4 mm 1 m/s 735 mmHg 97%
19:00 +10°C° 0.3 mm 1 m/s 735 mmHg 97%
20:00 +10°C° 0.3 mm 1 m/s 735 mmHg 97%
21:00 +9°C° 0.3 mm 1 m/s 735 mmHg 98%
22:00 +9°C° 2.3 mm 1 m/s 734 mmHg 98%
23:00 +9°C° 2.3 mm 1 m/s 734 mmHg 98%

17 Aprilie, Sâmbătă

Timp Temperatura Precipitaţii Vânt Presiune Umiditate
00:00 +9°C° 2.3 mm 1 m/s 734 mmHg 98%
01:00 +8°C° 3.6 mm 1 m/s 734 mmHg 98%
02:00 +8°C° 3.6 mm 1 m/s 735 mmHg 97%
03:00 +7°C° 3.6 mm 1 m/s 735 mmHg 97%
04:00 +7°C° 1 mm 1 m/s 735 mmHg 96%
05:00 +7°C° 1 mm 1 m/s 736 mmHg 96%
06:00 +7°C° 1 mm 1 m/s 736 mmHg 96%
07:00 +8°C° 0.1 mm 1 m/s 736 mmHg 93%
08:00 +9°C° 0.1 mm 1 m/s 736 mmHg 90%
09:00 +10°C° 0.1 mm 1 m/s 737 mmHg 87%
10:00 +10°C° 0.1 mm 1 m/s 737 mmHg 85%
11:00 +11°C° 0.1 mm 1 m/s 737 mmHg 82%
12:00 +11°C° 0.1 mm 1 m/s 737 mmHg 80%
13:00 +12°C° 0.2 mm 1 m/s 737 mmHg 77%
14:00 +12°C° 0.2 mm 1 m/s 737 mmHg 74%
15:00 +13°C° 0.2 mm 2 m/s 737 mmHg 70%
16:00 +12°C° 0.1 mm 1 m/s 737 mmHg 73%
17:00 +11°C° 0.1 mm 1 m/s 737 mmHg 76%
18:00 +11°C° 0.1 mm 1 m/s 738 mmHg 79%
19:00 +10°C° 0 mm 1 m/s 738 mmHg 81%
20:00 +9°C° 0 mm 1 m/s 738 mmHg 83%
21:00 +7°C° 0 mm 0 m/s 738 mmHg 85%
22:00 +7°C° 0 mm 1 m/s 738 mmHg 86%
23:00 +7°C° 0 mm 1 m/s 738 mmHg 88%
Arată mai mult

Formular de consimțământ

Meteoprog și furnizorii noștri de servicii pot stoca și accesa date personale, precum cookies, identificatori de dispozitiv sau alte tehnologii similare pe dispozitivul dumneavoastră și procesa astfel de date pentru a personaliza conținutul și reclamele, dar și pentru a oferi caracteristici de social media și pentru a analiza traficul.

  • Stocarea și/sau accesarea informațiilor pe dispozitivul dumneavoastră

    Cookies, identificatori de dispozitiv sau alte informații pot fi stocate sau accesate pe dispozitiv în scopurile indicate mai sus.

  • Reclame și conținut personalizat, evaluarea reclamelor și a conținutului, informații despre audiențe și dezvoltarea produselor

    Reclamele și conținutul pot fi personalizate pe baza unui profil. Pot fi adăugate date suplimentare pentru a personaliza mai bine reclamele și conținutul. Performanța reclamelor și conținutului poate fi măsurată. Pot fi obținute informații despre utilizatorii care au văzut reclamele și conținutul. Aceste date pot fi utilizate pentru a dezvolta sau îmbunătăți experiența utilizatorilor, sistemele și software-ul.

Dând clic pe ‘Sunt de acord’, permiteți utilizarea cookie-urilor menționate, a identificatorilor de dispozitiv, balizelor web sau altor tehnologii similare. Setările pot fi modificate din browser-ul dispozitivului dumneavoastră.

În anumite scopuri, interesele legitime pot prima asupra consimțământului. Puteți citi mai multe informații în acest sens în Politica privind Confidențialitatea Datelor și Cookie.